Location: Barcelona
(41.3829°N, 2.1774°E)
Time: 10:57:54
(UTC+00:00)

ISS - Pass Details

Date: 04 May 2025
Orbit: 416 x 419 km, 51.6° (Epoch: 14 May)

Event Time Altitude Azimuth Distance (km) Brightness Sun altitude
Exits shadow 02:34:32 - 314° (NW) 1,909 -0.4 -20.9°
Reaches altitude 10° 02:35:58 10° 329° (NNW) 1,496 -0.8 -20.7°
Maximum altitude 02:38:01 15° 7° (N) 1,225 -0.7 -20.5°
Drops below altitude 10° 02:40:04 10° 45° (NE) 1,496 0.3 -20.2°
Sets 02:42:50 0° 70° (ENE) 2,359 1.2 -19.8°
